Time,TemperatureF,DewpointF,PressureIn,WindDirection,WindDirectionDegrees,WindSpeedMPH,WindSpeedGustMPH,Humidity,HourlyPrecipIn,Conditions,Clouds,dailyrainin,SoftwareType,DateUTC
2013-01-14 00:00:00,54.0,52.3,27.22,SW,226,10.0,15.0,94,0.07,,,-99.99,Weather View 32 v60,2013-01-14 05:00:00,
2013-01-14 00:40:00,53.6,51.9,27.24,WSW,245,2.0,15.0,94,0.00,,,-99.99,Weather View 32 v60,2013-01-14 05:40:00,
2013-01-14 01:00:00,54.1,52.4,27.25,WSW,247,3.0,14.0,94,0.00,,,-99.99,Weather View 32 v60,2013-01-14 06:00:00,
2013-01-14 01:40:00,54.0,52.9,27.25,WSW,247,9.0,15.0,96,0.00,,,-99.99,Weather View 32 v60,2013-01-14 06:40:00,
2013-01-14 02:00:00,54.1,53.0,27.26,West,274,3.0,16.0,96,0.00,,,-99.99,Weather View 32 v60,2013-01-14 07:00:00,
2013-01-14 02:40:00,54.2,53.4,27.25,West,280,6.0,22.0,97,0.00,,,-99.99,Weather View 32 v60,2013-01-14 07:40:00,
2013-01-14 03:00:00,44.9,43.6,27.29,NNW,327,6.0,28.0,95,0.03,,,-99.99,Weather View 32 v60,2013-01-14 08:00:00,
2013-01-14 03:40:00,41.9,40.8,27.30,WNW,288,3.0,28.0,96,0.03,,,-99.99,Weather View 32 v60,2013-01-14 08:40:00,
2013-01-14 04:00:00,40.8,39.7,27.32,North,352,4.0,18.0,96,0.00,,,-99.99,Weather View 32 v60,2013-01-14 09:00:00,
2013-01-14 04:40:00,40.0,38.7,27.33,NNW,336,4.0,16.0,95,0.00,,,-99.99,Weather View 32 v60,2013-01-14 09:40:00,
2013-01-14 05:00:00,39.7,38.7,27.35,NNW,347,4.0,13.0,96,0.00,,,-99.99,Weather View 32 v60,2013-01-14 10:00:00,
2013-01-14 05:40:00,39.9,38.9,27.38,WNW,285,5.0,11.0,96,0.00,,,-99.99,Weather View 32 v60,2013-01-14 10:40:00,
2013-01-14 06:00:00,39.6,38.6,27.39,WNW,299,5.0,9.0,96,0.00,,,-99.99,Weather View 32 v60,2013-01-14 11:00:00,
2013-01-14 06:40:00,37.9,36.9,27.41,NNW,338,2.0,12.0,96,0.00,,,-99.99,Weather View 32 v60,2013-01-14 11:40:00,
2013-01-14 07:00:00,37.4,36.4,27.42,NNW,340,3.0,12.0,96,0.00,,,-99.99,Weather View 32 v60,2013-01-14 12:00:00,
2013-01-14 07:20:00,37.2,36.2,27.43,NNW,336,3.0,12.0,96,0.00,,,-99.99,Weather View 32 v60,2013-01-14 12:20:00,
2013-01-14 07:40:00,36.9,35.9,27.44,NNW,332,2.0,11.0,96,0.00,,,-99.99,Weather View 32 v60,2013-01-14 12:40:00,
2013-01-14 08:00:00,36.9,35.9,27.44,NW,324,7.0,11.0,96,0.00,,,-99.99,Weather View 32 v60,2013-01-14 13:00:00,
2013-01-14 08:20:00,36.9,35.9,27.46,NW,323,6.0,14.0,96,0.00,,,-99.99,Weather View 32 v60,2013-01-14 13:20:00,
2013-01-14 08:40:00,36.9,35.9,27.46,NNW,332,9.0,14.0,96,0.00,,,-99.99,Weather View 32 v60,2013-01-14 13:40:00,
2013-01-14 09:00:00,36.6,35.6,27.46,North,357,4.0,14.0,96,0.00,,,-99.99,Weather View 32 v60,2013-01-14 14:00:00,
2013-01-14 09:20:00,36.4,35.4,27.47,NW,311,0.0,11.0,96,0.00,,,-99.99,Weather View 32 v60,2013-01-14 14:20:00,
2013-01-14 09:40:00,36.4,35.4,27.46,North,357,0.0,11.0,96,0.00,,,-99.99,Weather View 32 v60,2013-01-14 14:40:00,
2013-01-14 10:00:00,36.7,35.7,27.46,North,358,6.0,11.0,96,0.00,,,-99.99,Weather View 32 v60,2013-01-14 15:00:00,
2013-01-14 10:20:00,36.2,35.2,27.46,North,5,3.0,9.0,96,0.00,,,-99.99,Weather View 32 v60,2013-01-14 15:20:00,
2013-01-14 10:40:00,36.3,35.3,27.45,North,354,4.0,11.0,96,0.00,,,-99.99,Weather View 32 v60,2013-01-14 15:40:00,
2013-01-14 11:00:00,36.3,35.3,27.44,NNW,339,2.0,11.0,96,0.00,,,-99.99,Weather View 32 v60,2013-01-14 16:00:00,
2013-01-14 11:20:00,36.3,35.3,27.44,North,6,4.0,11.0,96,0.00,,,-99.99,Weather View 32 v60,2013-01-14 16:20:00,
2013-01-14 11:40:00,36.6,35.6,27.43,North,353,3.0,14.0,96,0.00,,,-99.99,Weather View 32 v60,2013-01-14 16:40:00,
2013-01-14 12:00:00,36.6,35.6,27.44,North,3,3.0,14.0,96,0.00,,,-99.99,Weather View 32 v60,2013-01-14 17:00:00,
2013-01-14 12:20:00,36.6,35.6,27.43,NNW,341,9.0,14.0,96,0.00,,,-99.99,Weather View 32 v60,2013-01-14 17:20:00,
2013-01-14 12:40:00,37.7,36.7,27.43,North,357,3.0,12.0,96,0.00,,,-99.99,Weather View 32 v60,2013-01-14 17:40:00,
2013-01-14 13:00:00,37.6,-27.4,27.42,NNW,347,7.0,12.0,5,0.00,,,-99.99,Weather View 32 v60,2013-01-14 18:00:00,
2013-01-14 13:20:00,37.4,36.1,27.42,NNW,333,3.0,12.0,95,0.00,,,-99.99,Weather View 32 v60,2013-01-14 18:20:00,
2013-01-14 13:40:00,38.0,36.7,27.40,NW,323,2.0,12.0,95,0.00,,,-99.99,Weather View 32 v60,2013-01-14 18:40:00,
2013-01-14 14:00:00,37.9,36.3,27.40,NNW,327,2.0,12.0,94,0.00,,,-99.99,Weather View 32 v60,2013-01-14 19:00:00,
2013-01-14 14:20:00,38.7,37.1,27.39,NW,324,0.0,9.0,94,0.00,,,-99.99,Weather View 32 v60,2013-01-14 19:20:00,
2013-01-14 14:40:00,37.5,35.9,27.40,NNW,345,2.0,6.0,94,0.00,,,-99.99,Weather View 32 v60,2013-01-14 19:40:00,
2013-01-14 15:00:00,36.9,35.3,27.42,NNW,336,4.0,6.0,94,0.00,,,-99.99,Weather View 32 v60,2013-01-14 20:00:00,
2013-01-14 15:20:00,36.2,34.6,27.44,North,1,3.0,6.0,94,0.00,,,-99.99,Weather View 32 v60,2013-01-14 20:20:00,
2013-01-14 15:40:00,35.6,34.3,27.43,North,0,3.0,6.0,95,0.00,,,-99.99,Weather View 32 v60,2013-01-14 20:40:00,
2013-01-14 16:00:00,35.3,33.7,27.45,North,7,6.0,8.0,94,0.00,,,-99.99,Weather View 32 v60,2013-01-14 21:00:00,
2013-01-14 16:20:00,34.6,32.2,27.47,North,6,4.0,10.0,91,0.00,,,-99.99,Weather View 32 v60,2013-01-14 21:20:00,
2013-01-14 16:40:00,33.9,31.3,27.49,North,6,6.0,10.0,90,0.00,,,-99.99,Weather View 32 v60,2013-01-14 21:40:00,
2013-01-14 17:00:00,33.6,31.0,27.50,NNW,346,5.0,10.0,90,0.00,,,-99.99,Weather View 32 v60,2013-01-14 22:00:00,
2013-01-14 17:20:00,33.4,30.8,27.50,NNE,21,2.0,10.0,90,0.00,,,-99.99,Weather View 32 v60,2013-01-14 22:20:00,
2013-01-14 17:40:00,32.9,30.3,27.50,NW,325,4.0,10.0,90,0.00,,,-99.99,Weather View 32 v60,2013-01-14 22:40:00,
2013-01-14 18:00:00,32.5,30.2,27.50,North,7,2.0,10.0,91,0.00,,,-99.99,Weather View 32 v60,2013-01-14 23:00:00,
2013-01-14 18:20:00,32.6,30.8,27.51,NNW,346,2.0,10.0,93,0.00,,,-99.99,Weather View 32 v60,2013-01-14 23:20:00,
2013-01-14 18:40:00,32.4,30.1,27.51,North,0,1.0,10.0,91,0.00,,,-99.99,Weather View 32 v60,2013-01-14 23:40:00,
2013-01-14 19:00:00,32.4,30.3,27.51,NNE,28,3.0,7.0,92,0.00,,,-99.99,Weather View 32 v60,2013-01-15 00:00:00,
2013-01-14 19:20:00,32.1,29.8,27.51,North,0,3.0,10.0,91,0.00,,,-99.99,Weather View 32 v60,2013-01-15 00:20:00,
2013-01-14 19:40:00,32.1,30.0,27.52,NNW,339,2.0,10.0,92,0.00,,,-99.99,Weather View 32 v60,2013-01-15 00:40:00,
2013-01-14 20:00:00,31.7,29.1,27.52,North,6,2.0,10.0,90,0.00,,,-99.99,Weather View 32 v60,2013-01-15 01:00:00,
2013-01-14 20:20:00,31.6,29.0,27.51,North,356,3.0,9.0,90,0.00,,,-99.99,Weather View 32 v60,2013-01-15 01:20:00,
2013-01-14 20:40:00,30.3,28.0,27.50,NNW,342,0.0,9.0,91,0.01,,,-99.99,Weather View 32 v60,2013-01-15 01:40:00,
2013-01-14 21:00:00,29.7,27.7,27.47,SW,223,1.0,9.0,92,0.04,,,-99.99,Weather View 32 v60,2013-01-15 02:00:00,
2013-01-14 21:20:00,30.4,28.6,27.45,South,186,4.0,8.0,93,0.07,,,-99.99,Weather View 32 v60,2013-01-15 02:20:00,
2013-01-14 21:40:00,30.5,28.7,27.45,South,188,10.0,10.0,93,0.07,,,-99.99,Weather View 32 v60,2013-01-15 02:40:00,
2013-01-14 22:00:00,30.9,29.1,27.45,WSW,254,4.0,10.0,93,0.05,,,-99.99,Weather View 32 v60,2013-01-15 03:00:00,
2013-01-14 22:20:00,30.8,29.3,27.43,WSW,241,0.0,10.0,94,0.03,,,-99.99,Weather View 32 v60,2013-01-15 03:20:00,
2013-01-14 22:40:00,31.0,29.5,27.43,SSW,212,0.0,10.0,94,0.02,,,-99.99,Weather View 32 v60,2013-01-15 03:40:00,
2013-01-14 23:00:00,31.0,29.5,27.43,NNE,24,0.0,5.0,94,0.01,,,-99.99,Weather View 32 v60,2013-01-15 04:00:00,
2013-01-14 23:20:00,31.2,29.7,27.43,North,0,3.0,5.0,94,0.00,,,-99.99,Weather View 32 v60,2013-01-15 04:20:00,
2013-01-14 23:40:00,30.8,29.3,27.44,NNE,21,2.0,8.0,94,0.00,,,-99.99,Weather View 32 v60,2013-01-15 04:40:00,